Location: Medoc Mountain State Park
(36.2578°N, 77.8786°W)
Time: 14:50:18
(UTC-04:00)

Daily predictions for brighter satellites

Satellite Brightness Start Highest point End
(mag) Time Altitude Azimuth Time Altitude Azimuth Time Altitude Azimuth
Meteosat 1 Rocket2 4.4 20:40:23 10° WSW 20:44:43 36° S 20:50:53 10° ESE
SL-27 R/B 2.6 20:46:57 10° NNW 20:50:36 83° WSW 20:54:07 10° SSE
Meteor 2-10 Rocket 3.9 20:45:59 10° N 20:51:46 81° W 20:57:20 10° S
Cosmos 1782 2.9 20:51:56 10° N 20:55:57 64° E 20:59:57 10° SSE
SEDSat Delta rocket 3.9 20:53:18 10° SW 20:57:27 32° SSE 21:01:13 10° ESE
Envisat 4.1 20:55:14 10° SE 20:59:31 28° ENE 21:03:49 10° N
Cosmos 1844 Rocket 3.4 20:54:58 10° SW 21:00:32 59° WNW 21:06:07 10° NNE
Cosmos 1825 2.8 20:58:49 10° SSE 21:02:18 35° E 21:05:49 10° NNE
FENGYUN 3A 3.9 20:57:07 10° S 21:02:30 77° WSW 21:07:54 10° NNW
Meteor 2-6 Rocket 4.3 20:58:23 10° N 21:04:19 78° E 21:10:04 10° SSE
Cosmos 2278 Rocket 2.2 20:59:40 10° SSW 21:05:18 71° ESE 21:10:58 10° NNE
deb Chang Zheng 4 4.4 21:01:58 10° NE 21:05:56 32° E 21:09:55 10° SSE
Atlas Centaur 2 2.6 21:04:13 10° WSW 21:07:13 22° SSW 21:09:39 12° SSE
ERS-1 Rocket 3.3 21:03:38 10° SSE 21:08:30 51° ENE 21:13:22 10° N
COSMOS 2406 4.2 21:03:57 10° NNW 21:09:25 47° WSW 21:14:51 10° S
Cosmos 1420 Rocket 4.2 21:06:22 10° S 21:11:22 48° ESE 21:16:23 10° NNE
Cosmos 1844 4.3 21:06:23 10° SSW 21:12:06 66° WNW 21:17:53 10° NNE
H-2A R/B 3.0 21:09:40 13° SE 21:12:49 30° ENE 21:16:30 10° N
ISS -0.7 21:10:39 10° W 21:13:20 23° NNW 21:16:01 10° NNE
APEX 3.6 21:12:50 10° S 21:16:27 48° ESE 21:21:09 10° NNE
Cosmos 1140 Rocket 4.1 21:12:09 10° N 21:16:59 39° ENE 21:20:39 16° SE
Cosmos 2154 Rocket 3.9 21:11:11 10° S 21:17:23 73° E 21:23:33 10° N
Cosmos 1939 Rocket 3.3 21:15:00 14° SE 21:18:00 42° ENE 21:21:44 10° N
Okean 3 4.0 21:15:10 10° N 21:19:13 40° E 21:22:12 16° SE
Cosmos 407 Rocket 3.8 21:14:11 10° NNW 21:19:27 69° WSW 21:24:44 10° S
Abrixas 2.4 21:18:59 10° SW 21:21:59 63° SE 21:25:00 10° ENE
YAOGAN 11 4.2 21:17:30 10° SSE 21:22:02 87° ENE 21:26:37 10° NNW
COSMOS 2487 2.6 21:20:03 10° N 21:23:37 58° ENE 21:25:58 20° SSE
Cosmos 1238 Rocket 3.0 21:20:14 10° N 21:23:42 48° E 21:26:52 16° SSE
SPOT 5 3.8 21:23:32 17° SE 21:27:06 37° ENE 21:32:00 10° N
Cosmos 2082 Rocket 3.4 21:22:59 10° N 21:27:49 28° ENE 21:30:58 17° ESE
Cosmos 1452 Rocket 4.4 21:27:33 10° SW 21:32:40 52° WNW 21:37:50 10° N
Lacrosse 5 2.9 21:32:34 10° S 21:36:33 23° ESE 21:40:32 10° ENE
Cosmos 1184 Rocket 2.9 21:33:54 10° S 21:37:12 79° W 21:40:34 10° N
Intercosmos 25 3.4 21:38:00 27° SSE 21:39:24 41° E 21:42:24 10° NNE
H-2A R/B 4.1 21:40:11 12° E 21:41:48 13° ENE 21:44:11 10° NE
Cosmos 2297 3.6 21:38:19 10° SSW 21:43:58 75° ESE 21:49:43 10° NNE
Meteor 1-14 Rocket 4.3 21:43:49 16° SSE 21:48:16 53° E 21:53:41 10° NNE
CZ-3A R/B 4.2 21:34:46 10° W 21:48:25 27° SW 21:51:20 17° S
H-2A R/B 4.2 21:44:25 10° WSW 21:49:06 49° S 22:18:38 10° ESE
Meteor 2-13 Rocket 4.4 21:44:27 10° S 21:50:35 79° E 21:56:46 10° N
Okean 2 Rocket 3.0 21:47:22 10° S 21:51:48 85° W 21:56:13 10° N
Cosmos 1606 4.2 21:52:02 10° NNW 21:55:39 35° W 21:59:13 10° SSW
Cosmos 1782 Rocket 4.1 21:52:15 10° SSW 21:56:38 60° W 22:01:05 10° N
SPOT 1/Viking Rocket 4.2 21:55:17 29° ESE 21:57:10 39° ENE 22:01:59 10° N
EO 1 Delta rocket 4.4 21:54:06 10° N 21:59:42 66° WNW 22:04:25 10° SSW
NOSS 8 (E) 4.3 21:57:49 10° SSW 22:01:18 86° ESE 22:04:53 10° NNE
USA 229 DEB 4.1 21:56:31 10° NNW 22:03:28 53° NE 22:07:00 29° ESE
USA 229 4.1 21:56:37 10° NNW 22:03:34 53° NE 22:07:06 29° ESE
Cosmos 1242 Rocket 2.6 21:59:55 10° N 22:03:37 80° W 22:04:46 42° S
Cosmos 1850 Rocket 4.0 22:01:39 10° NNW 22:07:01 88° ENE 22:09:25 34° SSE
Elektron 3 4.2 22:07:16 10° NW 22:10:20 85° ENE 22:11:16 51° SE
ARGOS 3.5 22:09:05 36° ESE 22:10:41 47° ENE 22:15:48 10° N
YAOGAN 6 2.4 22:10:46 68° E 22:10:56 70° ENE 22:14:26 10° N
Cosmos 2369 Rocket 4.3 22:14:07 11° ENE 22:14:07 11° ENE 22:14:22 10° ENE
Cosmos 2218 Rocket 4.0 22:08:10 20° S 22:12:47 77° E 22:19:11 10° N
Lacrosse 5 rocket 1.0 22:09:02 10° SSW 22:13:00 69° SE 22:16:48 10° NE
Cosmos 1975 Rocket 3.7 22:09:36 10° NNW 22:13:48 51° W 22:16:09 24° SSW
GPS 2-05 Rocket1 2.9 22:10:09 10° W 22:13:49 70° SSW 22:13:49 70° SSW
OAO 3 Rocket 3.1 22:09:01 10° WSW 22:13:59 74° S 22:15:30 44° E
DNEPR-1 R/B 3.9 22:09:52 10° NW 22:14:54 64° WSW 22:16:17 41° S
PSLV R/B 3.5 22:16:18 61° NW 22:16:18 61° NW 22:18:52 10° NNW
SL-08 RB Rocket 4.2 22:15:38 39° E 22:16:09 41° ENE 22:20:31 10° N
CZ-4 R/B 3.9 22:15:31 10° NNE 22:20:02 49° E 22:20:06 49° ESE
Cosmos 1959 Rocket 4.4 22:16:51 21° S 22:21:03 89° ESE 22:27:11 10° N
CZ-4 SHROUD 3.7 22:23:32 56° WNW 22:23:32 56° WNW 22:26:12 10° NNW
AVUM R/B 4.2 22:23:21 10° NNW 22:26:05 43° NNE 22:26:05 43° NNE
Cosmos 1536 Rocket 3.6 22:22:24 10° N 22:26:51 62° E 22:27:02 62° E
Cosmos 1331 Rocket 3.9 22:27:09 53° SSE 22:28:07 65° ESE 22:33:14 10° NNE
Landsat 7 4.5 22:28:19 39° ENE 22:28:27 39° ENE 22:32:51 10° N
Cosmos 1727 Rocket 4.0 22:22:33 10° N 22:28:42 65° E 22:30:27 46° SE
Cosmos 1741 Rocket 4.4 22:24:03 10° NNW 22:29:11 59° WSW 22:31:03 37° SSW
MetOp-A 4.5 22:31:17 34° SSW 22:33:32 60° W 22:38:49 10° NNW
CZ-4C R/B 4.4 22:36:09 34° NE 22:36:09 34° NE 22:39:15 10° N
Cosmos 1110 Rocket 3.9 22:35:43 39° SSW 22:37:43 87° WNW 22:42:57 10° NNE
OAO 1 Rocket 4.3 22:32:32 10° W 22:37:51 80° S 22:38:33 66° ESE
Meteor 1-20 Rocket 4.0 22:39:25 55° S 22:40:41 79° E 22:46:13 10° N
SEDSat Delta rocket 4.3 22:39:06 10° WSW 22:41:22 27° SW 22:41:22 27° SW
Cosmos 1833 Rocket 2.6 22:38:28 10° NNW 22:44:06 85° WSW 22:45:06 62° S
Terra 2.6 22:44:32 38° ENE 22:44:32 38° ENE 22:48:33 10° N
USA 245 3.9 22:46:36 50° WNW 22:46:36 50° WNW 22:50:19 10° NNW
Cosmos 1339 Rocket 4.4 22:42:33 10° N 22:48:46 78° E 22:50:00 59° SSE
H-2A R/B 4.3 22:46:49 14° SW 22:48:49 19° W 22:51:51 10° NW
DMSP B5D2-2 4.4 22:48:48 10° NNE 22:53:13 51° ENE 22:53:13 51° ENE
USA 234 3.7 22:53:31 10° NE 22:58:07 41° E 22:58:07 41° E
Cosmos 1300 Rocket 4.0 23:04:46 59° NNW 23:04:46 59° NNW 23:08:27 10° N
Cosmos 1486 Rocket 4.1 23:04:25 10° NNW 23:09:19 66° NE 23:09:19 66° NE
Cosmos 2285 Rocket 4.4 23:12:35 48° ENE 23:12:35 48° ENE 23:17:48 10° NNE
Okean 1 4.5 23:07:48 10° NNW 23:10:39 42° NNW 23:10:39 42° NNW
Cosmos 2082 Rocket 3.2 23:06:45 10° NW 23:11:56 37° WSW 23:12:49 35° SW
Okean 1 Rocket 3.8 23:13:53 52° NNW 23:13:53 52° NNW 23:17:22 10° N
Cosmos 1812 4.4 23:12:41 10° NNW 23:15:11 33° NW 23:15:11 33° NW
Lacrosse 5 2.7 23:14:17 10° WSW 23:19:13 49° NW 23:24:10 10° NNE
H-2A R/B 2.2 23:20:50 72° WNW 23:20:50 72° WNW 23:25:53 10° NNW
BREEZE-M DEB (TANK) 4.5 23:23:31 64° SSE 23:24:19 69° SE 23:44:22 10° NE
Meteor 2-4 Rocket 4.5 23:22:05 10° N 23:26:19 41° NE 23:26:19 41° NE
Cosmos 1535 Rocket 4.5 23:37:20 81° W 23:37:22 81° W 23:43:48 10° N
ASTEX 1 4.3 23:40:28 10° N 23:44:25 47° NW 23:44:25 47° NW
Iridium 4 Rocket 4.1 23:44:22 10° N 23:49:23 65° N 23:49:23 65° N
Lacrosse 5 rocket 4.2 23:50:25 10° WNW 23:52:33 14° NW 23:54:39 10° N
